Showing default

GALS 1, 22963

Orbit data source: Space-Track

GALS 1, 22963 is a Commonwealth of Independent States-origin payload satellite in GEO that was launched on Thu, 20 Jan 1994 UTC via a PROTON-K/DM-2M launch vehicle from the Tyuratam Missile And Space Complex (TTMTR). Payloads include a variety of satellites, spacecraft, and rockets equipped with specific instruments for various scientific and technological missions. These include communications satellites like Starlink; space stations such as the ISS; scientific satellites like the Hubble; Earth observation satellites from companies like Planet Labs, Umbra, and HawkEye 360; GPS; miniature CubeSats for education and research; and military/defense satellites.

Not visible in the next 10 days
GALS 1 details
Identifier
22963, 1994-002A
Orbit
GEO
Last TLE update1 day ago
Origin
Flag of CISINFK/LAND (CIS)
ManufacturerNPO PM
MissionNon-operational Defense Communications
Bus & MotorGALS, Unknown motor
Mass2,600 kg wet, ~2,400 kg dry
Launch date (UTC)
1994-01-20 (31 years ago)
Launch vehicle
PROTON-K/DM-2M
Launch site
Tyuratam Missile And Space Complex (TTMTR)
Object type
Payload
Rocket body
Debris
Shape & HBRCyl + 2 Pan, 10 m
Radar Cross Section34.346 m², Large (>1 m²)

Expand to show TLE details & history

TLE from 1 day ago
0 GALS 1
1 22963U 94002A   25024.86160424 -.00000332  00000-0  00000-0 0  9990
2 22963  14.5881 357.7040 0011865 214.2347 329.1176  1.00221670113611
Epoch: 2025-01-24T20:40Z
Definitive object data (Epoch: 2025-01-24T20:40:42.606Z)
Latitude-0.82286°
Longitude106.29288°
Altitude35,757.605 km
Speed3.077 km/s
True Right ascension12h 03m 33s
True Declination0° 49' 19"
Sunlit
Object was in daylight at TLE epoch
Visualization TLE readout
Latitude-1.60893°
Longitude109.31675°
Altitude35,756.541 km
Speed3.077 km/s
Apparent Right ascension12h 03m 07s
Apparent Declination-6° 27' 41"
Sunlit
Object is in daylight
Visualization observer readout
Local Sidereal Time22:11:07
Azimuth315.615° NNW
Elevation-48.168°
Doppler factor1
Orbital elements
Apogee altitude35,851.667 km
Perigee altitude35,751.574 km
Semi-major axis42,179.758 km
Eccentricity0.0011865
Inclination14.5881°
RAAN357.704°
Arg. of periapsis214.2347°
True anomaly329.04772°
Mean anomaly329.1176°
Eccentric anomaly329.08267°
Mean motion0.25055 °/min
BSTARUnknown
Orbital period1436.86 mins
Loading historical data...
22963 neighbors
Authenticating...
Loading maneuver chart data...
Loading historical data...
Loading historical data...
Loading historical data...
Loading historical data...
Loading historical data...
Loading historical data...
Loading historical data...

GALS 1 Visibility forecast

Observer location: undefined°, undefined

GALS 1 is not visible in the next 10 days
Span
Click to sort rows by Start time (UTC) header in descending order
Start Az.
Max El. time (UTC)
Max El. Az.
Max El.
End time (UTC)
End Az.
|